Wind_Speed
18 17 20 24 26 27 29 34 29 49 40 46 39 38 24 25 20 19 17 15 14 15 14 15 15 14 14 15 17 20 22 22 23 27 29 30 31 35 38 44 44 32 29 31
23 21 24 28 29 34 35 37 41 40 38 27 25 18 13 13 16 18 16 15 15 14 12 13 13 13 12 13 15 17 19 19 20 21 22 24 26 28 31 33 34 38 42 35
19 14 20 25 15 15 19 21 22 24 23 21 19 10 9 11 13 14 14 14 15 13 12 12 12 12 11 12 14 15 16 16 16 17 19 21 23 24 25 28 30 30 30 32
20 14 10 11 12 28 30 31 20 22 26 24 20 14 11 10 12 13 13 14 15 14 12 12 11 11 11 12 13 15 15 13 12 14 16 19 20 21 23 27 27 26 26 27
11 16 24 26 15 14 7 13 18 20 19 13 13 11 10 11 12 12 13 14 15 14 13 12 11 10 10 11 12 13 13 10 11 14 16 18 18 21 23 24 23 23 24 22
11 8 8 16 18 17 18 28 18 11 13 11 9 11 11 12 12 13 13 14 14 14 12 11 10 9 9 10 10 10 10 10 13 16 17 18 20 21 23 23 23 22 20 19
24 14 16 23 18 18 12 15 13 11 11 11 13 13 13 15 14 13 13 13 13 13 11 9 8 7 9 8 8 8 9 10 13 14 16 18 20 21 22 22 22 20 19 19
9 10 11 6 9 10 11 17 20 17 15 15 17 17 19 17 14 12 12 11 11 11 9 7 5 5 6 7 8 8 8 11 13 14 16 18 19 19 20 20 19 18 19 19
14 14 20 26 27 30 35 25 26 22 14 20 18 18 19 18 15 13 11 11 10 10 8 5 2 4 5 6 7 7 8 11 13 15 16 17 18 18 19 20 21 22 21 20
25 29 25 27 26 28 28 15 19 19 20 21 19 20 21 18 13 12 11 11 10 11 10 7 4 4 4 5 6 7 10 12 14 16 18 19 20 20 21 21 21 22 23 22
31 30 29 26 23 12 14 16 15 17 18 19 19 18 16 13 12 13 12 10 10 11 9 7 5 3 3 3 5 8 11 14 16 18 19 20 21 22 23 24 25 25 24 24
33 24 25 23 11 15 17 18 19 18 18 18 16 14 13 12 13 12 10 9 10 10 8 4 4 5 4 5 7 10 12 15 17 19 20 22 23 24 25 26 26 26 26 27
24 21 22 21 15 19 19 18 18 17 17 15 14 14 15 14 12 10 9 9 10 9 6 6 5 3 4 7 10 12 14 16 18 19 20 21 22 23 26 28 28 27 27 28
26 22 21 18 20 21 19 16 16 16 14 14 12 11 11 10 9 8 9 10 9 8 8 7 5 4 6 9 12 15 17 19 21 23 24 25 25 26 26 26 26 25 27 26
18 21 24 24 22 20 17 15 14 14 13 10 9 9 9 8 9 9 10 8 8 9 8 7 6 6 8 11 14 16 18 21 23 25 26 26 27 29 29 30 29 29 27 28
16 15 18 21 22 19 17 14 13 12 10 9 9 8 8 8 8 9 10 10 11 10 9 9 8 9 11 14 16 18 20 23 26 27 28 28 29 29 29 30 30 31 31 30
22 21 18 17 17 16 15 15 13 11 10 9 9 9 8 8 9 11 12 13 13 12 11 11 10 12 15 16 19 21 23 26 29 30 30 30 31 31 32 32 32 32 33 33
24 21 18 18 17 14 13 12 10 9 9 9 9 8 8 11 13 13 14 14 14 13 13 13 14 16 18 20 22 23 25 28 31 32 32 32 33 34 34 34 33 32 33 34
26 21 17 16 11 10 10 10 10 11 10 11 11 11 12 13 14 15 15 15 15 14 14 15 17 19 20 22 24 26 28 30 32 32 32 34 35 34 34 33 33 34 34 34
18 15 15 11 9 9 8 9 10 10 10 11 12 12 12 13 14 15 16 16 16 16 16 17 19 21 23 24 26 28 29 32 32 32 34 34 34 34 34 34 34 34 34 35
13 13 11 10 9 7 7 8 10 11 12 12 12 13 15 16 17 17 16 17 17 17 19 20 22 23 25 26 27 28 31 33 32 33 34 34 34 34 33 33 33 33 34 34
9 10 9 7 7 8 8 10 11 12 12 12 11 13 14 15 16 16 17 17 18 19 21 22 24 25 26 27 28 31 33 32 32 33 33 33 33 32 32 32 32 33 34 34
9 8 8 8 8 8 9 10 10 10 10 10 12 13 14 15 15 15 17 19 20 21 22 24 25 25 26 27 31 32 31 32 33 33 33 32 32 31 31 32 32 33 33 33
7 8 8 7 7 8 9 10 10 10 11 12 14 14 15 15 16 18 19 20 21 22 23 24 24 26 27 31 30 30 32 32 33 33 32 31 31 30 31 31 31 32 32 33
8 8 7 6 7 8 9 10 10 12 13 14 14 15 16 17 17 18 19 20 21 23 23 23 25 27 30 28 29 31 32 32 32 31 30 30 30 30 31 31 31 31 32 32
10 9 7 7 8 9 9 10 11 12 12 12 13 14 15 16 18 19 20 21 21 21 22 24 28 28 27 28 30 31 31 31 30 29 29 29 29 29 30 30 30 31 32 32
8 7 8 9 10 11 11 12 12 12 12 12 14 15 16 17 18 19 19 19 21 23 25 26 25 25 27 29 30 30 29 29 28 28 28 28 28 28 29 30 30 30 31 30
Wind_Direction
269 277 289 289 284 282 274 273 258 280 275 293 297 297 287 285 283 287 290 292 296 302 315 318 321 328 338 346 354 4 8 10 16 24 27 30 32 43 38 41 49 51 61 73
279 288 295 291 287 289 282 278 273 283 288 300 300 295 278 266 276 280 288 287 291 299 310 311 315 320 329 342 349 3 5 5 18 26 30 30 34 37 44 47 53 49 44 50
279 298 301 292 297 295 292 292 288 290 304 302 310 291 271 273 279 284 284 286 292 296 304 306 309 314 325 338 348 359 6 4 15 30 33 40 39 41 43 48 50 51 53 54
277 292 268 277 299 298 288 280 287 300 305 288 289 282 278 278 284 287 286 286 289 294 301 302 303 308 322 339 346 352 359 4 19 36 35 38 43 40 42 45 45 46 48 50
253 260 280 293 308 307 336 341 319 296 296 287 272 270 277 283 283 287 285 284 288 290 296 299 300 307 320 335 346 350 350 3 20 26 33 32 36 40 41 44 43 45 43 43
247 273 272 291 301 281 297 299 314 303 316 300 279 273 274 283 287 287 283 285 287 286 289 289 295 305 321 336 343 350 348 6 24 21 24 24 27 30 31 33 37 38 42 43
248 254 273 295 296 274 271 286 306 305 306 305 294 278 290 296 291 289 284 280 279 284 282 278 285 309 323 334 350 351 356 11 20 19 14 17 19 19 20 21 23 23 27 27
234 235 267 316 291 264 297 292 304 299 291 297 298 288 291 292 287 290 283 276 278 278 268 263 276 304 325 346 352 356 5 9 9 7 6 6 9 9 9 9 10 12 18 17
246 256 277 297 287 289 292 285 274 287 283 303 298 292 288 293 290 284 280 278 282 268 246 243 272 329 337 330 330 347 357 3 1 358 359 359 360 2 360 359 357 360 3 3
273 280 289 297 293 298 307 305 284 285 289 296 295 291 285 282 275 272 268 270 270 251 229 228 249 271 310 306 326 343 354 353 352 354 352 352 352 354 355 355 355 355 354 351
291 293 295 294 289 297 298 297 301 295 294 291 289 287 277 263 259 260 261 263 261 248 222 216 222 263 277 305 333 344 347 349 351 350 348 348 349 351 350 349 349 348 345 343
294 296 286 299 274 286 294 296 293 290 288 287 287 283 267 249 248 254 256 251 234 203 210 211 240 255 296 330 339 342 344 346 346 346 346 347 346 345 345 345 343 341 341 341
293 288 271 270 276 287 289 286 284 283 284 286 285 275 261 252 247 242 237 238 225 188 212 221 226 255 307 329 334 338 341 343 343 344 342 342 342 341 341 339 339 338 337 337
284 283 277 270 282 282 283 278 276 280 280 278 276 270 256 240 228 225 220 207 193 205 222 225 235 269 308 322 330 335 338 339 339 340 339 337 337 336 335 334 331 330 330 331
280 276 273 274 273 276 279 272 269 270 271 268 264 251 233 225 223 213 196 201 218 229 227 232 252 282 307 317 325 330 332 335 337 335 334 333 333 332 332 330 328 327 329 328
265 275 275 271 268 270 268 264 262 266 263 258 245 230 223 215 207 207 205 222 237 232 234 244 263 287 303 313 320 323 328 330 332 333 332 330 329 329 327 325 325 326 324 323
264 282 282 281 276 265 263 244 252 251 251 240 225 219 218 208 206 221 235 239 239 237 241 255 274 289 301 309 315 321 325 328 329 329 328 327 326 326 327 327 325 323 323 325
268 272 284 284 279 259 239 242 241 234 222 217 221 227 229 228 231 236 241 239 237 241 252 267 282 292 301 309 314 318 322 325 327 326 326 326 326 326 325 323 322 324 326 327
261 270 274 281 252 230 226 221 215 212 215 220 229 235 236 237 237 243 245 241 242 249 260 274 286 294 301 307 312 316 319 322 324 324 324 324 325 324 321 321 323 325 326 325
254 259 271 246 218 208 211 215 218 223 234 243 250 258 247 242 243 245 246 246 251 259 270 279 287 295 301 307 311 313 316 320 322 322 323 323 321 319 320 323 324 323 323 322
249 251 214 201 198 203 217 226 235 245 253 257 256 252 240 239 248 249 248 251 259 269 277 284 292 298 302 305 308 312 318 320 320 320 321 320 318 319 320 320 320 320 321 321
204 190 189 193 210 224 233 244 254 258 255 252 252 254 247 245 249 251 255 262 269 275 282 288 293 297 301 306 310 315 317 317 318 318 317 317 319 319 318 318 319 319 319 320
181 186 200 213 227 240 250 256 256 255 257 261 261 253 247 249 254 260 266 270 273 279 285 291 295 299 303 308 313 315 315 316 316 317 318 318 317 317 318 318 318 318 320 321
199 211 217 226 242 258 263 261 260 262 266 270 264 255 252 250 256 262 266 271 277 283 289 294 297 301 306 311 312 314 315 315 316 317 317 316 317 317 318 318 319 321 321 323
222 226 234 250 263 269 270 269 267 267 270 268 261 255 257 260 262 266 272 277 283 288 292 295 300 304 308 310 312 313 313 314 316 316 316 317 317 318 318 319 321 323 324 326
222 229 242 254 262 270 276 279 280 281 276 266 260 258 260 264 269 274 279 284 288 291 296 299 302 304 307 311 312 313 314 315 315 316 316 317 318 318 320 322 324 326 327 327
233 244 254 264 277 286 290 292 291 286 278 270 266 268 270 274 277 280 284 288 291 294 299 301 302 307 311 311 312 314 314 315 316 316 317 318 319 321 324 325 326 326 327 328
Height
3076 3077 3076 3074 3073 3072 3070 3065 3066 3046 3051 3048 3049 3046 3045 3044 3041 3041 3039 3037 3037 3036 3034 3032 3031 3028 3025 3022 3017 3013 3008 3002 2996 2988 2982 2976 2970 2959 2955 2947 2941 2935 2932 2927
3069 3071 3069 3064 3064 3060 3055 3052 3050 3047 3041 3043 3042 3038 3037 3037 3037 3036 3034 3033 3033 3033 3031 3030 3028 3026 3023 3020 3017 3012 3008 3003 2997 2992 2987 2982 2976 2967 2962 2956 2951 2947 2940 2936
3063 3065 3062 3056 3051 3050 3047 3045 3045 3041 3039 3037 3037 3034 3034 3033 3032 3031 3030 3030 3029 3029 3028 3027 3025 3023 3021 3018 3015 3012 3008 3004 2999 2993 2990 2985 2980 2975 2969 2961 2956 2952 2949 2945
3060 3061 3056 3048 3046 3044 3040 3038 3040 3036 3034 3032 3033 3031 3030 3029 3028 3027 3027 3026 3026 3025 3024 3023 3022 3020 3018 3015 3013 3010 3007 3004 2999 2994 2990 2986 2983 2979 2974 2966 2961 2958 2954 2950
3057 3055 3047 3041 3040 3039 3034 3032 3035 3031 3028 3026 3027 3027 3026 3025 3024 3024 3024 3024 3023 3022 3020 3020 3019 3017 3016 3014 3011 3009 3006 3003 3000 2995 2990 2987 2984 2980 2977 2972 2969 2964 2959 2957
3053 3052 3043 3037 3037 3035 3032 3029 3029 3027 3026 3024 3024 3023 3023 3022 3021 3021 3020 3020 3019 3018 3017 3017 3016 3015 3013 3012 3010 3008 3005 3002 2998 2996 2991 2987 2984 2981 2977 2975 2973 2969 2966 2964
3047 3045 3037 3032 3031 3031 3032 3031 3025 3025 3024 3022 3021 3021 3019 3018 3017 3017 3016 3016 3015 3014 3014 3014 3013 3012 3012 3010 3008 3006 3004 3001 2998 2996 2993 2988 2984 2981 2978 2975 2973 2971 2968 2965
3040 3040 3034 3028 3028 3028 3026 3024 3022 3020 3019 3019 3018 3016 3015 3014 3013 3012 3012 3012 3011 3011 3011 3011 3011 3011 3010 3009 3007 3005 3003 3000 2997 2995 2992 2989 2985 2982 2979 2976 2973 2970 2966 2964
3034 3029 3027 3025 3024 3022 3018 3016 3017 3016 3015 3014 3013 3011 3010 3009 3009 3008 3008 3008 3008 3008 3008 3009 3009 3009 3009 3008 3007 3004 3002 2999 2997 2994 2991 2988 2986 2982 2979 2975 2971 2966 2963 2961
3027 3021 3021 3019 3016 3014 3011 3009 3010 3011 3010 3009 3008 3006 3005 3004 3005 3005 3005 3005 3005 3005 3006 3007 3007 3007 3007 3007 3005 3003 3001 2998 2995 2992 2989 2986 2983 2980 2977 2973 2969 2965 2961 2959
3016 3015 3014 3013 3011 3009 3007 3006 3006 3006 3005 3004 3003 3001 3000 3000 3001 3001 3001 3001 3002 3003 3004 3005 3005 3005 3005 3005 3004 3002 2999 2997 2994 2991 2987 2985 2981 2977 2973 2969 2966 2962 2959 2956
3008 3009 3008 3006 3004 3005 3004 3002 3002 3001 3000 2999 2998 2996 2995 2995 2996 2997 2998 2999 3000 3001 3002 3003 3003 3004 3004 3003 3002 3000 2998 2995 2992 2989 2986 2982 2978 2974 2971 2967 2964 2960 2956 2952
3003 3001 3000 3000 3001 3000 2999 2998 2997 2997 2996 2995 2993 2993 2992 2992 2993 2994 2995 2997 2998 2999 3000 3001 3002 3002 3002 3001 3000 2998 2996 2993 2991 2987 2984 2981 2977 2973 2969 2964 2960 2957 2953 2949
2997 2996 2995 2995 2995 2994 2993 2993 2992 2992 2992 2991 2990 2990 2990 2991 2992 2992 2993 2995 2996 2998 2999 2999 3000 3000 3000 2999 2997 2995 2993 2990 2987 2984 2980 2976 2973 2969 2966 2962 2959 2955 2950 2947
2990 2990 2990 2990 2989 2988 2988 2988 2988 2988 2988 2987 2987 2988 2988 2989 2990 2991 2992 2993 2995 2996 2997 2998 2998 2998 2997 2996 2994 2992 2990 2987 2984 2980 2977 2973 2969 2965 2961 2956 2952 2949 2945 2940
2983 2983 2983 2982 2982 2982 2983 2983 2983 2983 2983 2984 2985 2985 2986 2987 2987 2989 2990 2992 2993 2994 2995 2995 2995 2995 2994 2993 2991 2989 2986 2983 2980 2976 2972 2968 2964 2960 2956 2952 2946 2941 2937 2935
2978 2978 2978 2977 2976 2977 2978 2978 2979 2979 2980 2981 2982 2984 2984 2985 2986 2987 2989 2990 2991 2991 2992 2992 2992 2991 2990 2989 2986 2983 2980 2977 2974 2970 2966 2962 2958 2953 2948 2943 2939 2935 2930 2924
2972 2972 2972 2972 2971 2971 2973 2974 2975 2976 2978 2979 2980 2981 2982 2983 2983 2984 2986 2987 2987 2988 2988 2988 2988 2987 2985 2983 2980 2977 2974 2970 2967 2963 2958 2954 2949 2944 2939 2935 2931 2926 2921 2915
2965 2967 2967 2966 2966 2968 2969 2970 2972 2974 2975 2977 2977 2978 2978 2978 2979 2981 2982 2983 2984 2984 2984 2983 2983 2982 2980 2977 2974 2971 2967 2964 2960 2955 2950 2945 2940 2936 2932 2927 2922 2917 2912 2907
2960 2961 2962 2962 2964 2965 2966 2968 2970 2972 2973 2974 2974 2975 2975 2976 2976 2977 2978 2978 2979 2979 2979 2978 2977 2976 2974 2971 2968 2965 2961 2957 2952 2947 2942 2937 2934 2929 2924 2918 2913 2909 2905 2900
2955 2957 2958 2960 2961 2963 2965 2967 2968 2969 2970 2970 2971 2971 2971 2972 2973 2973 2974 2974 2974 2974 2974 2973 2972 2969 2967 2964 2961 2958 2954 2949 2945 2940 2935 2931 2926 2921 2916 2912 2907 2903 2898 2893
2952 2954 2956 2958 2960 2962 2963 2964 2965 2965 2966 2966 2966 2967 2967 2968 2968 2969 2969 2970 2969 2969 2968 2967 2965 2962 2960 2957 2954 2950 2946 2942 2937 2933 2929 2924 2918 2914 2910 2905 2900 2895 2890 2885
2951 2953 2955 2957 2959 2960 2961 2961 2962 2962 2962 2962 2963 2963 2963 2963 2964 2965 2965 2965 2964 2963 2962 2960 2958 2955 2953 2950 2946 2942 2938 2934 2930 2925 2920 2916 2912 2907 2903 2898 2893 2888 2883 2877
2951 2953 2955 2956 2957 2958 2958 2959 2959 2959 2959 2959 2959 2959 2959 2959 2959 2960 2959 2958 2958 2957 2955 2954 2951 2948 2945 2942 2938 2934 2930 2926 2921 2917 2912 2909 2904 2900 2895 2890 2885 2880 2875 2869
2951 2952 2953 2954 2954 2955 2955 2955 2955 2955 2955 2954 2954 2954 2954 2955 2955 2954 2954 2953 2952 2951 2949 2947 2944 2941 2938 2934 2931 2927 2922 2918 2913 2909 2905 2901 2896 2892 2887 2882 2877 2872 2867 2861
2950 2950 2951 2951 2952 2952 2952 2952 2952 2951 2950 2950 2950 2950 2950 2950 2949 2949 2948 2947 2946 2944 2942 2940 2937 2933 2930 2927 2923 2919 2914 2910 2906 2902 2898 2893 2889 2885 2880 2875 2869 2864 2859 2854
2947 2948 2948 2949 2949 2948 2948 2948 2947 2947 2946 2945 2945 2945 2945 2945 2944 2943 2942 2941 2939 2937 2935 2932 2929 2926 2922 2919 2915 2911 2906 2902 2898 2894 2890 2886 2882 2877 2872 2867 2862 2858 2853 2848